GW6793 Weather Reports


time (UTC)temp
C
wind
direction
speed
KPH
gust
KPH
rain 1hr
cm
rain 24hr
cm
rain mn
cm
humidity
%
barometer
mb
20260506185002 27 355 3.2 6.4 0.00 0.00 0.00 78 1009.2
20260506184501 27 332 3.2 6.4 0.00 0.00 0.00 79 1009.2
20260506184002 27 117 3.2 6.4 0.00 0.00 0.00 80 1009.3
20260506183501 27 150 3.2 9.7 0.00 0.00 0.00 80 1009.4
20260506182002 27 115 1.6 6.4 0.00 0.00 0.00 78 1009.5
20260506181502 27 144 3.2 9.7 0.00 0.00 0.00 80 1009.6
20260506181001 27 103 3.2 9.7 0.00 0.00 0.00 80 1009.6
20260506180000 27 84 3.2 4.8 0.00 0.00 0.00 79 1009.8
20260506175500 27 28 3.2 6.4 0.00 0.00 0.00 80 1009.8
20260506175001 27 90 3.2 9.7 0.00 0.00 0.00 82 1009.9
20260506174501 26 106 3.2 11.3 0.00 0.00 0.00 83 1010.0
20260506173501 26 57 1.6 3.2 0.00 0.00 0.00 86 1010.2
20260506173001 25 57 1.6 3.2 0.00 0.00 0.00 86 1010.4
20260506172501 25 70 0.0 3.2 0.00 0.00 0.00 86 1010.4
20260506172000 25 73 0.0 3.2 0.00 0.00 0.00 86 1010.5
20260506171501 25 73 0.0 3.2 0.00 0.00 0.00 86 1010.5
20260506171002 25 73 1.6 3.2 0.00 0.00 0.00 85 1010.7
20260506170002 25 81 1.6 4.8 0.00 0.00 0.00 84 1010.8
20260506165500 26 109 0.0 3.2 0.00 0.00 0.00 84 1010.7
20260506165001 26 109 0.0 3.2 0.00 0.00 0.00 85 1010.7
20260506164500 26 109 1.6 3.2 0.00 0.00 0.00 85 1010.6
20260506164000 26 109 1.6 4.8 0.00 0.00 0.00 84 1010.6
20260506163501 26 110 0.0 4.8 0.00 0.00 0.00 83 1010.7
20260506163000 26 115 1.6 4.8 0.00 0.00 0.00 83 1010.6
20260506162500 26 116 1.6 4.8 0.00 0.00 0.00 83 1010.6
20260506162001 26 74 3.2 9.7 0.00 0.00 0.00 84 1010.4
20260506161501 26 99 1.6 9.7 0.00 0.00 0.00 83 1010.4
20260506161000 26 163 1.6 6.4 0.00 0.00 0.00 83 1010.2
20260506160501 26 162 1.6 6.4 0.00 0.00 0.00 84 1010.0
20260506155959 26 180 1.6 4.8 0.00 0.00 0.00 84 1009.9
20260506155500 26 79 3.2 9.7 0.00 0.00 0.00 84 1009.9
20260506154959 25 102 1.6 9.7 0.00 0.00 0.00 83 1009.8
20260506154500 25 101 1.6 6.4 0.00 0.00 0.00 85 1009.8
20260506154000 25 101 1.6 6.4 0.00 0.00 0.00 84 1009.6
20260506153459 25 107 1.6 4.8 0.00 0.00 0.00 85 1009.7
20260506152959 25 88 1.6 4.8 0.00 0.00 0.00 84 1009.8
20260506152459 25 167 1.6 6.4 0.00 0.00 0.00 84 1009.8
20260506151959 25 96 1.6 6.4 0.00 0.00 0.00 83 1009.8
20260506150959 25 166 1.6 4.8 0.00 0.00 0.00 83 1009.8
20260506150459 25 163 1.6 6.4 0.00 0.00 0.00 84 1009.6
20260506150000 25 142 1.6 6.4 0.00 0.00 0.00 84 1009.5
20260506145459 25 83 1.6 6.4 0.00 0.00 0.00 85 1009.3
20260506144459 25 128 3.2 9.7 0.00 0.00 0.00 84 1009.3
20260506143000 25 194 1.6 6.4 0.00 0.00 0.00 85 1009.1
20260506142459 25 211 3.2 9.7 0.00 0.00 0.00 85 1009.0
20260506141959 25 210 1.6 9.7 0.00 0.00 0.00 86 1008.8
20260506141459 25 194 1.6 8.0 0.00 0.00 0.00 86 1008.6
20260506141000 25 200 3.2 8.0 0.00 0.00 0.00 86 1008.6
20260506140000 25 111 1.6 9.7 0.00 0.00 0.00 88 1008.5
20260506135501 25 118 1.6 9.7 0.00 0.00 0.00 88 1008.6
20260506135000 25 267 1.6 9.7 0.00 0.00 0.00 89 1008.7
20260506134459 24 103 1.6 9.7 0.00 0.00 0.00 89 1008.7
20260506134000 24 113 3.2 8.0 0.00 0.00 0.00 90 1008.8
20260506133500 24 127 1.6 6.4 0.00 0.00 0.00 90 1008.8
20260506131959 24 234 1.6 11.3 0.00 0.00 0.00 92 1008.9
20260506131500 24 189 1.6 9.7 0.00 0.00 0.00 92 1008.8
20260506130959 23 188 1.6 8.0 0.00 0.00 0.00 92 1008.7
20260506130459 23 196 1.6 8.0 0.00 0.00 0.00 92 1008.7
20260506130001 23 171 1.6 4.8 0.00 0.00 0.00 92 1008.7
20260506125000 23 181 1.6 4.8 0.00 0.00 0.00 93 1008.6
20260506124500 23 116 1.6 4.8 0.00 0.00 0.00 93 1008.6
20260506124001 23 119 0.0 4.8 0.00 0.00 0.00 93 1008.6
20260506123501 23 134 1.6 6.4 0.00 0.00 0.00 93 1008.6
20260506122459 23 189 0.0 3.2 0.00 0.00 0.00 93 1008.5
20260506122000 23 216 1.6 3.2 0.00 0.00 0.00 93 1008.6
20260506120959 23 247 1.6 6.4 0.00 0.00 0.00 93 1008.4
20260506120459 23 184 1.6 9.7 0.00 0.00 0.00 93 1008.4
20260506120001 23 214 1.6 9.7 0.00 0.00 0.00 93 1008.4
20260506115459 23 162 1.6 6.4 0.00 0.00 0.00 93 1008.4
20260506114959 23 194 1.6 6.4 0.00 0.00 0.00 93 1008.3
20260506114459 23 201 1.6 4.8 0.00 0.00 0.00 93 1008.2
20260506114000 23 208 1.6 4.8 0.00 0.00 0.00 93 1008.2
20260506112459 23 214 1.6 6.4 0.00 0.00 0.00 93 1008.2
20260506111959 23 158 1.6 6.4 0.00 0.00 0.00 93 1008.2
20260506110959 23 196 3.2 14.5 0.00 0.00 0.00 93 1008.1
20260506110459 23 234 1.6 14.5 0.00 0.00 0.00 93 1008.1
20260506105959 23 189 3.2 12.9 0.00 0.00 0.00 93 1008.0
20260506104958 23 194 1.6 8.0 0.00 0.00 0.00 93 1007.9
20260506102958 23 199 1.6 9.7 0.00 0.00 0.00 93 1007.7
20260506102458 23 202 1.6 9.7 0.00 0.00 0.00 92 1007.7
20260506101958 23 180 1.6 6.4 0.00 0.00 0.00 92 1007.6
20260506101458 23 164 1.6 6.4 0.00 0.00 0.00 92 1007.6
20260506100958 23 183 1.6 8.0 0.00 0.00 0.00 92 1007.6
20260506100000 23 225 1.6 4.8 0.00 0.00 0.00 92 1007.5
20260506095458 23 203 1.6 8.0 0.00 0.00 0.00 92 1007.6
20260506095000 23 195 1.6 8.0 0.00 0.00 0.00 92 1007.6
20260506094459 23 173 1.6 6.4 0.00 0.00 0.00 92 1007.5
20260506093458 23 202 3.2 8.0 0.00 0.00 0.00 91 1007.4
20260506092958 23 215 3.2 8.0 0.00 0.00 0.00 91 1007.4
20260506092459 23 213 3.2 8.0 0.00 0.00 0.00 91 1007.4
20260506091458 23 183 1.6 8.0 0.00 0.00 0.00 91 1007.4
20260506090958 23 120 1.6 6.4 0.00 0.00 0.00 91 1007.4
20260506090000 23 213 1.6 6.4 0.00 0.00 0.00 91 1007.4
20260506085458 23 227 1.6 8.0 0.00 0.00 0.00 91 1007.4
20260506084958 23 219 1.6 6.4 0.00 0.00 0.00 91 1007.5
20260506084458 23 64 1.6 6.4 0.00 0.00 0.00 91 1007.6
20260506083959 23 207 1.6 6.4 0.00 0.00 0.00 91 1007.5
20260506083458 23 211 1.6 3.2 0.00 0.00 0.00 90 1007.4
20260506082958 23 215 1.6 6.4 0.00 0.00 0.00 90 1007.5
20260506081958 23 203 3.2 9.7 0.00 0.00 0.00 90 1007.5
20260506081458 23 194 1.6 9.7 0.00 0.00 0.00 90 1007.6
20260506073457 23 234 1.6 6.4 0.00 0.00 0.00 89 1007.9
20260506072957 23 237 1.6 6.4 0.00 0.00 0.00 89 1008.0
20260506072457 23 186 1.6 11.3 0.00 0.00 0.00 89 1007.9
20260506071957 23 220 3.2 11.3 0.00 0.00 0.00 89 1008.0
20260506071457 23 211 1.6 8.0 0.00 0.00 0.00 89 1008.0
20260506070957 23 170 1.6 6.4 0.00 0.00 0.00 89 1008.0
20260506070458 23 206 3.2 8.0 0.00 0.00 0.00 89 1008.1
20260506062456 23 237 3.2 12.9 0.00 0.00 0.00 88 1008.4
20260506060957 23 216 3.2 8.0 0.00 0.00 0.00 87 1008.4
20260506060457 23 200 1.6 8.0 0.00 0.00 0.00 87 1008.4
20260506051005 23 199 3.2 8.0 0.00 0.00 0.00 86 1008.8
20260506050504 23 111 3.2 14.5 0.00 0.00 0.00 86 1008.7
20260506045005 24 200 4.8 11.3 0.00 0.00 0.00 86 1008.7
20260506044504 24 188 4.8 9.7 0.00 0.00 0.00 85 1008.6
20260506042505 24 202 1.6 9.7 0.00 0.00 0.00 85 1008.5
20260506042004 24 233 1.6 8.0 0.00 0.00 0.00 85 1008.5
20260506041504 24 198 1.6 6.4 0.00 0.00 0.00 85 1008.5
20260506041004 24 193 1.6 6.4 0.00 0.00 0.00 85 1008.6
20260506040504 24 225 1.6 6.4 0.00 0.00 0.00 85 1008.6
20260506040005 24 209 1.6 4.8 0.00 0.00 0.00 85 1008.6
20260506035504 24 227 1.6 4.8 0.00 0.00 0.00 85 1008.5
20260506035004 24 230 1.6 3.2 0.00 0.00 0.00 85 1008.5
20260506034506 24 190 1.6 6.4 0.00 0.00 0.00 85 1008.5
20260506034004 24 235 1.6 8.0 0.00 0.00 0.00 85 1008.5
20260506033002 24 217 1.6 3.2 0.00 0.00 0.00 85 1008.3
20260506032504 24 221 1.6 4.8 0.00 0.00 0.00 85 1008.1
20260506032004 24 179 1.6 6.4 0.00 0.00 0.00 84 1008.0
20260506031505 24 202 1.6 6.4 0.00 0.00 0.00 84 1008.0
20260506031004 24 210 1.6 8.0 0.00 0.00 0.00 84 1008.0
20260506030504 24 162 3.2 8.0 0.00 0.00 0.00 84 1007.9
20260506030005 24 190 1.6 8.0 0.00 0.00 0.00 84 1007.7
20260506025504 24 197 3.2 6.4 0.00 0.00 0.00 84 1007.7
20260506025005 24 261 3.2 12.9 0.00 0.00 0.00 84 1007.5
20260506024505 24 193 3.2 12.9 0.00 0.00 0.00 84 1007.4
20260506024004 24 54 1.6 8.0 0.00 0.00 0.00 84 1007.4
20260506023504 24 209 3.2 8.0 0.00 0.00 0.00 84 1007.3
20260506023004 25 222 3.2 16.1 0.00 0.00 0.00 84 1007.2
20260506022504 25 159 3.2 16.1 0.00 0.00 0.00 84 1007.2
20260506022003 25 221 3.2 14.5 0.00 0.00 0.00 83 1007.1
20260506021504 25 173 3.2 14.5 0.00 0.00 0.00 83 1007.1
20260506021004 25 242 1.6 8.0 0.00 0.00 0.00 83 1007.1
20260506015003 25 198 1.6 8.0 0.00 0.00 0.00 83 1006.8
20260506014502 25 223 3.2 8.0 0.00 0.00 0.00 83 1006.8
20260506014004 25 196 3.2 6.4 0.00 0.00 0.00 83 1006.7
20260506013503 25 192 3.2 12.9 0.00 0.00 0.00 82 1006.7
20260506013003 25 179 3.2 12.9 0.00 0.00 0.00 82 1006.6
20260506012503 25 219 3.2 12.9 0.00 0.00 0.00 82 1006.6
20260506012003 25 194 3.2 14.5 0.00 0.00 0.00 82 1006.5
20260506011503 25 122 3.2 14.5 0.00 0.00 0.00 82 1006.5
20260506011003 25 170 3.2 14.5 0.00 0.00 0.00 82 1006.4
20260506010504 25 211 3.2 14.5 0.00 0.00 0.00 81 1006.4
20260506010003 25 155 1.6 14.5 0.00 0.00 0.00 81 1006.3
20260506005503 25 231 1.6 4.8 0.00 0.00 0.00 81 1006.2
20260506005003 25 229 3.2 8.0 0.00 0.00 0.00 81 1006.1
20260506004503 25 171 3.2 12.9 0.00 0.00 0.00 80 1006.1
20260506004003 25 190 3.2 14.5 0.00 0.00 0.00 80 1006.0
20260506002502 26 225 3.2 19.3 0.00 0.00 0.00 79 1006.0
20260506002003 26 171 3.2 9.7 0.00 0.00 0.00 79 1005.9
20260506001504 26 59 3.2 9.7 0.00 0.00 0.00 79 1005.9
20260506000503 26 146 6.4 17.7 0.00 0.00 0.00 78 1005.8
20260506000002 26 184 4.8 14.5 0.00 0.00 0.00 77 1005.7
20260505235503 26 176 3.2 11.3 0.00 0.00 0.00 77 1005.6
20260505235003 26 92 3.2 11.3 0.00 0.00 0.00 77 1005.6
20260505234502 26 217 4.8 22.5 0.00 0.00 0.00 77 1005.6
20260505233503 26 180 4.8 16.1 0.00 0.00 0.00 77 1005.6
20260505232502 27 144 4.8 16.1 0.00 0.00 0.00 76 1005.6
20260505232004 27 215 4.8 16.1 0.00 0.00 0.00 75 1005.6
20260505231502 27 118 4.8 14.5 0.00 0.00 0.00 74 1005.6
20260505231003 27 172 4.8 12.9 0.00 0.00 0.00 74 1005.5
20260505230503 27 169 4.8 12.9 0.00 0.00 0.00 74 1005.5
20260505230002 27 159 4.8 17.7 0.00 0.00 0.00 74 1005.6
20260505225002 27 205 6.4 22.5 0.00 0.00 0.00 74 1005.5
20260505224502 27 170 4.8 22.5 0.00 0.00 0.00 74 1005.3
20260505224002 27 201 4.8 14.5 0.00 0.00 0.00 73 1005.3
20260505223504 27 224 6.4 16.1 0.00 0.00 0.00 74 1005.5
20260505223002 28 164 6.4 16.1 0.00 0.00 0.00 73 1005.5
20260505222502 28 215 6.4 19.3 0.00 0.00 0.00 73 1005.6
20260505222002 27 171 6.4 17.7 0.00 0.00 0.00 73 1005.7
20260505221502 27 159 6.4 17.7 0.00 0.00 0.00 73 1005.6
20260505221003 28 180 4.8 16.1 0.00 0.00 0.00 73 1005.7
20260505220501 28 171 4.8 14.5 0.00 0.00 0.00 72 1005.8
20260505215502 28 213 4.8 17.7 0.00 0.00 0.00 72 1005.8
20260505215003 28 224 4.8 17.7 0.00 0.00 0.00 71 1005.8
20260505214001 28 209 4.8 17.7 0.00 0.00 0.00 71 1005.9
20260505213502 28 105 4.8 14.5 0.00 0.00 0.00 70 1006.0
20260505213002 28 119 6.4 19.3 0.00 0.00 0.00 70 1006.2
20260505212502 28 146 6.4 19.3 0.00 0.00 0.00 71 1006.2
20260505212001 28 229 6.4 27.4 0.00 0.00 0.00 72 1006.2
20260505211501 28 169 4.8 27.4 0.00 0.00 0.00 71 1006.3
20260505211003 28 144 3.2 11.3 0.00 0.00 0.00 73 1006.4
20260505210006 28 172 4.8 14.5 0.00 0.00 0.00 72 1006.7
20260505205503 28 217 4.8 14.5 0.00 0.00 0.00 72 1006.8
20260505205002 28 198 4.8 16.1 0.00 0.00 0.00 72 1006.9
20260505204502 28 119 4.8 16.1 0.00 0.00 0.00 71 1007.0
20260505204002 28 163 4.8 16.1 0.00 0.00 0.00 71 1007.1
20260505203502 28 201 4.8 14.5 0.00 0.00 0.00 73 1007.2
20260505203002 28 227 6.4 12.9 0.00 0.00 0.00 71 1007.2
20260505202003 28 221 6.4 24.1 0.00 0.00 0.00 71 1007.3
20260505201002 28 188 4.8 17.7 0.00 0.00 0.00 71 1007.4
20260505200501 28 119 4.8 17.7 0.00 0.00 0.00 71 1007.4
20260505195502 28 203 4.8 16.1 0.00 0.00 0.00 70 1007.6
20260505195004 28 187 4.8 17.7 0.00 0.00 0.00 71 1007.6
20260505194502 28 171 4.8 17.7 0.00 0.00 0.00 71 1007.7
20260505194002 28 86 4.8 14.5 0.00 0.00 0.00 71 1007.8
20260505193502 28 173 4.8 17.7 0.00 0.00 0.00 71 1007.7
20260505193004 28 128 3.2 12.9 0.00 0.00 0.00 73 1007.8
20260505192002 28 157 4.8 20.9 0.00 0.00 0.00 73 1007.9
20260505191002 28 227 3.2 17.7 0.00 0.00 0.00 73 1008.1
20260505190503 28 202 6.4 17.7 0.00 0.00 0.00 73 1008.0
20260505190003 28 201 6.4 19.3 0.00 0.00 0.00 71 1008.0